FW8288 Weather Reports


Display with metric or nautical units.
time (UTC)temp
F
wind
direction
speed
MPH
gust
MPH
rain 1hr
in
rain 24hr
in
rain mn
in
humidity
%
barometer
mb
20260508021558 74 0 0.0 2.0 0.00 0.00 0.00 70 1014.6
20260508020059 74 165 1.0 2.0 0.00 0.00 0.00 70 1014.5
20260508014557 74 165 1.0 2.0 0.00 0.00 0.00 70 1014.6
20260508013059 75 165 1.0 2.0 0.00 0.00 0.00 69 1014.5
20260508011558 75 165 2.0 4.0 0.00 0.00 0.00 68 1014.5
20260508010100 76 165 2.0 4.0 0.00 0.00 0.00 67 1014.6
20260508004600 76 165 0.0 3.0 0.00 0.00 0.00 67 1014.9
20260508003100 76 165 2.0 5.0 0.00 0.00 0.00 67 1014.4
20260508001601 77 165 2.0 6.0 0.00 0.00 0.00 66 1014.6
20260507234603 77 165 3.0 5.0 0.00 0.00 0.00 69 1014.6
20260507233116 78 165 2.0 3.0 0.00 0.00 0.00 68 1014.6
20260507231600 78 165 2.0 5.0 0.00 0.00 0.00 68 1014.4
20260507230059 78 165 2.0 4.0 0.00 0.00 0.00 69 1014.3
20260507224600 77 165 2.0 6.0 0.00 0.00 0.00 69 1014.3
20260507223110 78 165 3.0 7.0 0.00 0.00 0.00 68 1014.0
20260507221601 78 165 2.0 4.0 0.00 0.00 0.00 68 1014.1
20260507220114 78 165 2.0 6.0 0.00 0.00 0.00 67 1014.2
20260507214604 79 165 2.0 5.0 0.00 0.00 0.00 67 1014.3
20260507213103 78 165 2.0 4.0 0.00 0.00 0.00 68 1014.4
20260507211603 77 165 2.0 6.0 0.00 0.00 0.00 68 1014.5
20260507210114 77 165 3.0 6.0 0.00 0.00 0.00 68 1014.9
20260507204559 77 165 2.0 7.0 0.00 0.00 0.00 69 1014.8
20260507203100 78 165 2.0 7.0 0.00 0.00 0.00 67 1015.1
20260507201601 77 165 2.0 5.0 0.00 0.00 0.00 67 1015.1
20260507200104 76 165 2.0 6.0 0.00 0.00 0.00 68 1015.1
20260507194601 76 165 2.0 6.0 0.00 0.00 0.00 68 1015.2
20260507193059 76 165 3.0 6.0 0.00 0.00 0.00 70 1015.6
20260507191605 74 165 3.0 8.0 0.00 0.00 0.00 71 1015.9
20260507190107 73 165 2.0 5.0 0.00 0.00 0.00 71 1016.3
20260507184557 73 165 3.0 5.0 0.00 0.00 0.00 72 1016.5
20260507183117 73 165 3.0 6.0 0.00 0.00 0.00 71 1016.5
20260507181601 73 165 3.0 8.0 0.00 0.00 0.00 70 1016.4
20260507180104 73 165 2.0 6.0 0.00 0.00 0.00 72 1016.6
20260507174605 72 165 4.0 7.0 0.00 0.00 0.00 73 1016.8
20260507173113 70 164 2.0 5.0 0.00 0.00 0.00 75 1017.0
20260507171558 69 0 1.0 4.0 0.00 0.00 0.00 77 1017.3
20260507170103 68 165 1.0 3.0 0.00 0.00 0.00 78 1017.3
20260507164633 67 164 1.0 4.0 0.00 0.00 0.00 79 1017.5
20260507163102 67 165 2.0 4.0 0.00 0.00 0.00 78 1017.2
20260507161605 67 165 2.0 5.0 0.00 0.00 0.00 78 1016.9
20260507154600 66 165 3.0 7.0 0.00 0.00 0.00 79 1017.0
20260507153059 66 164 0.0 6.0 0.00 0.00 0.00 81 1017.0
20260507151557 65 164 2.0 6.0 0.00 0.00 0.00 80 1017.0
20260507150059 65 164 2.0 4.0 0.00 0.00 0.00 81 1017.3
20260507144602 65 164 2.0 4.0 0.00 0.00 0.00 83 1017.3
20260507143119 65 164 1.0 8.0 0.00 0.00 0.00 84 1017.1
20260507141604 65 165 2.0 5.0 0.00 0.00 0.00 84 1016.4
20260507140058 65 165 2.0 6.0 0.00 0.00 0.00 83 1016.5
20260507134559 65 164 3.0 5.0 0.00 0.00 0.00 83 1016.1
20260507133057 65 165 2.0 6.0 0.00 0.00 0.00 83 1016.4
20260507131605 65 165 2.0 7.0 0.00 0.00 0.00 83 1016.7
20260507124605 66 164 1.0 5.0 0.00 0.00 0.00 84 1016.8
20260507123057 66 164 2.0 4.0 0.00 0.00 0.00 84 1016.5
20260507121559 66 164 2.0 5.0 0.00 0.00 0.00 84 1016.1
20260507120057 67 164 1.0 3.0 0.00 0.00 0.00 84 1015.7
20260507114610 67 164 1.0 4.0 0.00 0.00 0.00 83 1015.6
20260507113129 67 0 1.0 4.0 0.00 0.00 0.00 83 1015.2
20260507111559 67 164 0.0 4.0 0.00 0.00 0.00 83 1014.7
20260507110059 67 164 0.0 2.0 0.00 0.00 0.00 83 1014.9
20260507104559 67 0 1.0 3.0 0.00 0.00 0.00 83 1014.7
20260507103059 67 164 0.0 3.0 0.00 0.00 0.00 83 1014.7
20260507101557 67 164 1.0 4.0 0.00 0.00 0.00 83 1014.6
20260507100106 67 164 1.0 4.0 0.00 0.00 0.00 83 1014.5
20260507094602 67 164 1.0 3.0 0.00 0.00 0.00 83 1014.3
20260507093058 67 164 0.0 3.0 0.00 0.00 0.00 83 1014.1
20260507091635 67 164 1.0 3.0 0.00 0.00 0.00 83 1013.7
20260507090058 67 164 0.0 4.0 0.00 0.00 0.00 83 1013.8
20260507084610 67 164 1.0 4.0 0.00 0.00 0.00 82 1014.2
20260507083057 67 164 1.0 3.0 0.00 0.00 0.00 82 1014.1
20260507081600 67 164 1.0 4.0 0.00 0.00 0.00 82 1014.1
20260507080100 67 0 0.0 3.0 0.00 0.00 0.00 81 1014.0
20260507074600 67 164 1.0 4.0 0.00 0.00 0.00 81 1013.9
20260507073102 67 164 1.0 4.0 0.00 0.00 0.00 81 1014.2
20260507071557 68 164 0.0 3.0 0.00 0.00 0.00 81 1014.3
20260507070104 68 164 2.0 6.0 0.00 0.00 0.00 80 1014.6
20260507064559 68 164 1.0 3.0 0.00 0.00 0.00 81 1014.4
20260507063059 68 0 0.0 3.0 0.00 0.00 0.00 81 1014.5
20260507061558 68 164 2.0 4.0 0.00 0.00 0.00 81 1014.6
20260507054558 68 164 1.0 6.0 0.00 0.00 0.00 81 1014.0
20260507053059 69 164 1.0 6.0 0.00 0.00 0.00 80 1013.9
20260507051559 69 164 0.0 5.0 0.00 0.00 0.00 80 1013.7
20260507044610 70 0 0.0 2.0 0.00 0.00 0.00 80 1014.1
20260507043109 70 164 1.0 4.0 0.00 0.00 0.00 79 1013.9
20260507041601 71 164 0.0 4.0 0.00 0.00 0.00 78 1013.9
20260507040058 71 164 2.0 5.0 0.00 0.00 0.00 78 1013.9
20260507034559 72 164 2.0 4.0 0.00 0.00 0.00 78 1014.0
20260507033059 72 164 1.0 5.0 0.00 0.00 0.00 77 1013.7
20260507031558 73 164 2.0 5.0 0.00 0.00 0.00 78 1013.1
20260507030056 73 164 2.0 4.0 0.00 0.00 0.00 78 1012.8
20260507024558 73 164 2.0 6.0 0.00 0.00 0.00 78 1012.7
20260507023108 74 164 1.0 5.0 0.00 0.00 0.00 78 1012.4